DW0805 Weather Reports


Display with metric or nautical units.
time (UTC)temp
F
wind
direction
speed
MPH
gust
MPH
rain 1hr
in
rain 24hr
in
rain mn
in
humidity
%
barometer
mb
20260906063515 59 303 14.0 23.0 0.00 0.00 0.00 82 1018.8
20260906062514 59 294 14.0 22.0 0.00 0.00 0.00 82 1018.7
20260906055514 58 290 10.0 22.0 0.00 0.00 0.00 83 1018.4
20260906053515 58 288 10.0 16.0 0.00 0.00 0.00 84 1018.1
20260906052514 58 308 12.0 20.0 0.00 0.00 0.00 84 1018.0
20260906050514 58 302 11.0 20.0 0.00 0.00 0.00 84 1017.8
20260906045514 58 292 12.0 23.0 0.00 0.00 0.00 83 1017.6
20260906043514 58 270 13.0 18.0 0.00 0.00 0.00 84 1017.4
20260906042514 58 302 15.0 21.0 0.00 0.00 0.00 84 1017.3
20260906033513 58 288 11.0 20.0 0.00 0.00 0.00 83 1016.3
20260906032514 58 302 12.0 17.0 0.00 0.00 0.00 84 1016.3
20260906031514 58 301 12.0 17.0 0.00 0.00 0.00 84 1016.1
20260906030515 58 291 8.0 20.0 0.00 0.00 0.00 84 1016.0
20260906022514 58 290 13.0 22.0 0.00 0.00 0.00 83 1015.6
20260906021516 58 314 12.0 21.0 0.00 0.00 0.00 84 1015.6
20260906012514 58 298 14.0 25.0 0.00 0.00 0.00 83 1015.1
20260906011515 58 285 15.0 21.0 0.00 0.00 0.00 83 1015.0
20260906005514 59 297 16.0 25.0 0.00 0.00 0.00 83 1014.8
20260905233515 59 319 12.0 24.0 0.00 0.00 0.00 82 1013.7
20260905232514 59 303 15.0 22.0 0.00 0.00 0.00 81 1013.7
20260905230516 59 300 16.0 23.0 0.00 0.00 0.00 81 1013.5
20260905224516 60 301 27.0 28.0 0.00 0.00 0.00 81 1013.3
20260905222514 60 300 18.0 25.0 0.00 0.00 0.00 81 1012.8
20260905221510 60 279 15.0 26.0 0.00 0.00 0.00 81 1012.7
20260905220514 60 289 13.0 25.0 0.00 0.00 0.00 80 1012.5
20260905215514 60 296 14.0 24.0 0.00 0.00 0.00 80 1012.3
20260905213514 60 276 14.0 30.0 0.00 0.00 0.00 79 1012.2
20260905211515 60 283 16.0 26.0 0.00 0.00 0.00 80 1011.9
20260905205515 60 286 17.0 26.0 0.00 0.00 0.00 80 1011.6
20260905202515 60 288 16.0 28.0 0.00 0.00 0.00 81 1011.3
20260905200515 60 296 16.0 28.0 0.00 0.00 0.00 78 1011.1
20260905195514 60 286 17.0 33.0 0.00 0.00 0.00 79 1010.9
20260905194516 60 281 22.0 28.0 0.00 0.00 0.00 79 1010.9
20260905193517 60 279 18.0 28.0 0.00 0.00 0.00 79 1010.7
20260905192515 60 293 18.0 35.0 0.00 0.00 0.00 79 1010.4
20260905191515 60 261 28.0 35.0 0.00 0.00 0.00 79 1010.4
20260905185515 60 260 19.0 36.0 0.00 0.02 0.00 79 1010.3
20260905180515 61 276 22.0 28.0 0.00 0.07 0.00 77 1009.6
20260905175515 61 326 18.0 33.0 0.00 0.09 0.00 76 1009.5
20260905172515 61 289 17.0 29.0 0.00 0.09 0.00 74 1009.2
20260905171515 62 275 21.0 28.0 0.00 0.09 0.00 72 1009.1
20260905165515 62 298 18.0 28.0 0.00 0.09 0.00 73 1009.0
20260905164516 63 278 18.0 28.0 0.00 0.09 0.00 74 1008.9
20260905163515 62 261 18.0 26.0 0.00 0.09 0.00 74 1008.8
20260905162515 63 281 18.0 26.0 0.00 0.09 0.00 73 1008.6
20260905160514 64 266 18.0 28.0 0.00 0.09 0.00 72 1008.4
20260905154516 64 261 13.0 22.0 0.00 0.09 0.00 75 1008.2
20260905153514 64 276 14.0 24.0 0.00 0.09 0.00 75 1008.1
20260905152514 64 261 15.0 28.0 0.00 0.09 0.00 74 1008.0
20260905151515 63 255 21.0 29.0 0.00 0.09 0.00 75 1007.9
20260905150514 64 281 14.0 29.0 0.00 0.09 0.00 72 1007.9
20260905144515 65 262 17.0 26.0 0.00 0.09 0.00 73 1007.7
20260905142514 65 257 16.0 28.0 0.00 0.09 0.00 74 1007.6
20260905134516 64 264 18.0 28.0 0.00 0.09 0.00 74 1007.5
20260905133515 64 275 16.0 23.0 0.00 0.09 0.00 78 1007.5
20260905132515 63 266 16.0 22.0 0.00 0.09 0.00 81 1007.3
20260905131515 62 258 19.0 28.0 0.00 0.11 0.00 77 1007.4
20260905125516 65 257 17.0 29.0 0.00 0.16 0.00 75 1007.3
20260905121514 63 255 16.0 26.0 0.00 0.24 0.00 77 1006.9
20260905120516 64 264 14.0 26.0 0.00 0.25 0.00 77 1006.9
20260905115515 64 249 12.0 25.0 0.00 0.28 0.00 79 1006.8
20260905112515 63 251 13.0 25.0 0.00 0.31 0.00 79 1006.6
20260905110515 63 311 13.0 21.0 0.00 0.33 0.00 78 1006.4
20260905102515 63 314 16.0 25.0 0.00 0.35 0.00 77 1006.1
20260905101516 63 261 16.0 26.0 0.00 0.35 0.00 77 1006.1
20260905095515 63 258 15.0 25.0 0.00 0.36 0.00 77 1006.0
20260905093515 62 269 17.0 25.0 0.00 0.36 0.00 77 1005.8
20260905090515 64 310 18.0 28.0 0.00 0.38 0.00 76 1005.5
20260905085515 63 305 18.0 26.0 0.00 0.39 0.00 78 1005.4
20260905084516 63 253 13.0 21.0 0.00 0.39 0.00 79 1005.5
20260905080515 62 321 11.0 22.0 0.00 0.39 0.00 80 1005.3
20260905075517 62 324 13.0 20.0 0.00 0.39 0.00 81 1005.3
20260905074515 62 272 15.0 25.0 0.00 0.39 0.00 79 1005.1
20260905072515 61 273 14.0 25.0 0.00 0.39 0.00 82 1005.0